Provincetown, Massachusetts, United States (02657)
Lat: 42.06N, Lon: 70.18W
Wx Zone: MAZ022
Local Info
Past Weather Observations for Today

NOTE: This archive is for the closest National Weather Service station to Provincetown. Information may differ from the station used for current weather conditions.

Click here for Long-term Archive

Time Weather Temperature Dewpoint Humidity Pressure Winds Precip Visibility
18:35
Clear
61°F / 16°C 52°F / 11°C 72% 30.24 in
(1024 mb)
E 4.6 mph
(E 7 kph)
- 10SM
18:15
Clear
61°F / 16°C 52°F / 11°C 72% 30.24 in
(1024 mb)
E 4.6 mph
(E 7 kph)
- 10SM
17:55
Clear
63°F / 17°C 54°F / 12°C 73% 30.24 in
(1024 mb)
E 5.8 mph
(E 9 kph)
- 10SM
17:35
Clear
64°F / 18°C 54°F / 12°C 68% 30.24 in
(1024 mb)
E 6.9 mph
(E 11 kph)
- 10SM
17:15
Clear
64°F / 18°C 54°F / 12°C 68% 30.24 in
(1024 mb)
E 8.1 mph
(E 13 kph)
- 10SM
16:55
Clear
64°F / 18°C 54°F / 12°C 68% 30.21 in
(1023 mb)
ENE 9.2 mph
(ENE 15 kph)
- 10SM
16:35
Clear
66°F / 19°C 54°F / 12°C 64% 30.21 in
(1023 mb)
ENE 8.1 mph
(ENE 13 kph)
- 10SM
16:15
Clear
66°F / 19°C 54°F / 12°C 64% 30.21 in
(1023 mb)
ENE 9.2 mph
(ENE 15 kph)
- 10SM
15:55
Clear
66°F / 19°C 54°F / 12°C 64% 30.21 in
(1023 mb)
ENE 9.2 mph
(ENE 15 kph)
- 10SM
15:35
Clear
66°F / 19°C 54°F / 12°C 64% 30.21 in
(1023 mb)
NE 8.1 mph
(NE 13 kph)
- 10SM
15:15
Clear
66°F / 19°C 54°F / 12°C 64% 30.21 in
(1023 mb)
NE 9.2 mph
(NE 15 kph)
- 10SM
14:55
Clear
66°F / 19°C 54°F / 12°C 64% 30.21 in
(1023 mb)
ENE 9.2 mph
(ENE 15 kph)
- 10SM
14:35
Clear
66°F / 19°C 54°F / 12°C 64% 30.21 in
(1023 mb)
NE 10.4 mph
(NE 17 kph)
- 10SM
14:15
Clear
66°F / 19°C 54°F / 12°C 64% 30.21 in
(1023 mb)
NNE 9.2 mph
(NNE 15 kph)
- 10SM
13:55
Clear
66°F / 19°C 54°F / 12°C 64% 30.21 in
(1023 mb)
N 10.4 mph
(N 17 kph)
- 10SM
13:35
Clear
66°F / 19°C 54°F / 12°C 64% 30.21 in
(1023 mb)
NE 8.1 mph
(NE 13 kph)
- 10SM
13:15
Clear
68°F / 20°C 55°F / 13°C 64% 30.21 in
(1023 mb)
NNE 10.4 mph
(NNE 17 kph)
- 10SM
12:55
Partly Cloudy
68°F / 20°C 55°F / 13°C 64% 30.21 in
(1023 mb)
NE 11.5 mph
(NE 19 kph)
- 10SM
12:35
Partly Cloudy
68°F / 20°C 55°F / 13°C 64% 30.21 in
(1023 mb)
NE 12.7 mph
(NE 20 kph)
- 10SM
12:15
Partly Cloudy
68°F / 20°C 55°F / 13°C 64% 30.21 in
(1023 mb)
NE 11.5 mph
(NE 19 kph)
- 10SM
11:55
Partly Cloudy
66°F / 19°C 54°F / 12°C 64% 30.21 in
(1023 mb)
NE 10.4 mph
(NE 17 kph)
- 10SM
11:35
Clear
68°F / 20°C 55°F / 13°C 64% 30.21 in
(1023 mb)
NE 10.4 mph
(NE 17 kph)
- 10SM
11:15
Clear
68°F / 20°C 55°F / 13°C 64% 30.21 in
(1023 mb)
NE 11.5 mph
(NE 19 kph)
- 10SM
10:55
Clear
68°F / 20°C 54°F / 12°C 60% 30.18 in
(1022 mb)
NE 11.5 mph
(NE 19 kph)
0.10 in
(2.54 mm)
10SM
10:35
Clear
68°F / 20°C 55°F / 13°C 64% 30.18 in
(1022 mb)
NE 13.8 mph
(NE 22 kph)
0.10 in
(2.54 mm)
10SM
10:15
Clear
68°F / 20°C 55°F / 13°C 64% 30.18 in
(1022 mb)
NE 13.8 mph
(NE 22 kph)
- 10SM
09:55
Clear
68°F / 20°C 55°F / 13°C 64% 30.18 in
(1022 mb)
NNE 10.4 mph
(NNE 17 kph)
- 10SM
09:35
Clear
68°F / 20°C 54°F / 12°C 60% 30.18 in
(1022 mb)
NNE 9.2 mph
(NNE 15 kph)
- 10SM
09:15
Clear
68°F / 20°C 55°F / 13°C 64% 30.18 in
(1022 mb)
NE 10.4 mph
(NE 17 kph)
- 10SM
08:55
Clear
68°F / 20°C 55°F / 13°C 64% 30.18 in
(1022 mb)
NNE 12.7 mph
(NNE 20 kph)
- 10SM
08:35
Clear
68°F / 20°C 55°F / 13°C 64% 30.15 in
(1021 mb)
NNE 10.4 mph
(NNE 17 kph)
- 10SM
08:15
Clear
66°F / 19°C 55°F / 13°C 68% 30.15 in
(1021 mb)
N 11.5 mph
(N 19 kph)
- 10SM
07:55
Clear
66°F / 19°C 55°F / 13°C 68% 30.15 in
(1021 mb)
NNE 9.2 mph
(NNE 15 kph)
- 10SM
07:35
Clear
66°F / 19°C 55°F / 13°C 68% 30.12 in
(1020 mb)
N 9.2 mph
(N 15 kph)
- 10SM
07:15
Clear
66°F / 19°C 55°F / 13°C 68% 30.12 in
(1020 mb)
N 12.7 mph
(N 20 kph)
- 10SM
06:55
Clear
64°F / 18°C 55°F / 13°C 73% 30.12 in
(1020 mb)
N 9.2 mph
(N 15 kph)
- 10SM
06:35
Clear
64°F / 18°C 55°F / 13°C 73% 30.09 in
(1019 mb)
N 11.5 mph
(N 19 kph)
- 10SM
06:15
Clear
64°F / 18°C 55°F / 13°C 73% 30.09 in
(1019 mb)
NNW 10.4 mph
(NNW 17 kph)
- 10SM
05:55
Clear
64°F / 18°C 55°F / 13°C 73% 30.09 in
(1019 mb)
NNW 10.4 mph
(NNW 17 kph)
- 10SM
05:35
Clear
63°F / 17°C 55°F / 13°C 77% 30.09 in
(1019 mb)
NNW 11.5 mph
(NNW 19 kph)
- 10SM
05:15
Clear
63°F / 17°C 54°F / 12°C 73% 30.06 in
(1018 mb)
NNW 11.5 mph
(NNW 19 kph)
- 10SM
04:55
Clear
63°F / 17°C 54°F / 12°C 73% 30.06 in
(1018 mb)
NNW 12.7 mph
(NNW 20 kph)
- 10SM
04:35
Clear
63°F / 17°C 54°F / 12°C 73% 30.06 in
(1018 mb)
NNW 11.5 mph
(NNW 19 kph)
- 10SM
04:15
Clear
63°F / 17°C 54°F / 12°C 73% 30.04 in
(1017 mb)
NNW 12.7 mph
(NNW 20 kph)
- 10SM
03:55
Clear
63°F / 17°C 54°F / 12°C 73% 30.04 in
(1017 mb)
NNW 11.5 mph
(NNW 19 kph)
- 10SM
03:35
Clear
63°F / 17°C 54°F / 12°C 73% 30.04 in
(1017 mb)
NNW 11.5 mph
(NNW 19 kph)
- 10SM
03:15
Clear
63°F / 17°C 54°F / 12°C 73% 30.04 in
(1017 mb)
NNW 16.1 mph
(NNW 26 kph)
- 10SM
02:55
Clear
63°F / 17°C 54°F / 12°C 73% 30.04 in
(1017 mb)
NNW 10.4 mph
(NNW 17 kph)
- 10SM
02:35
Clear
64°F / 18°C 54°F / 12°C 68% 30.04 in
(1017 mb)
NNW 12.7 mph
(NNW 20 kph)
- 10SM
02:15
Clear
64°F / 18°C 54°F / 12°C 68% 30.04 in
(1017 mb)
NNW 11.5 mph
(NNW 19 kph)
- 10SM
01:55
Clear
64°F / 18°C 54°F / 12°C 68% 30.01 in
(1016 mb)
NNW 12.7 mph
(NNW 20 kph)
- 10SM
01:35
Clear
64°F / 18°C 54°F / 12°C 68% 30.01 in
(1016 mb)
NNW 12.7 mph
(NNW 20 kph)
- 10SM
01:15
Clear
64°F / 18°C 54°F / 12°C 68% 30.01 in
(1016 mb)
NNW 12.7 mph
(NNW 20 kph)
- 10SM
00:55
Clear
64°F / 18°C 54°F / 12°C 68% 30.01 in
(1016 mb)
NNW 15 mph
(NNW 24 kph)
- 10SM
00:35
Clear
64°F / 18°C 54°F / 12°C 68% 30.01 in
(1016 mb)
NNW 12.7 mph
(NNW 20 kph)
- 10SM
00:15
Clear
64°F / 18°C 54°F / 12°C 68% 30.01 in
(1016 mb)
NNW 12.7 mph
(NNW 20 kph)
- 10SM
Time Weather Temperature Dewpoint Humidity Pressure Winds Precip Visibility


Weather for websites

WeatherForYou.com, LLC is not responsible for any damages or problems caused by this service. Current weather conditions are obtained from the closest station including government and personal stations which may have varying degrees of accuracy. Weather forecasts are derived from the NOAA NDFD. Like all things, this site belongs to Jesus Christ... He just trusts me to maintain it. If you have any questions or comments email webmaster@weatherforyou.com

Copyright © 2014, WeatherForYou.com LLC. All rights reserved.